Terminal Aerodrome Forecast
Issued by NWS Key West, FL

Home | Current Version | Previous Version | Text Only | Print | Product List | Glossary On
Versions: 1 2 3 4 5 6 7 8 9 10 11 12 13 14 15 16 17 18 19 20 21
000
FTUS42 KKEY 241700
TAFEYW
TAF
KEYW 241727Z 2418/2518 11006KT P6SM FEW020 SCT060=

USA.gov is the U.S. government's official web portal to all federal, state and local government web resources and services.